Tracking 35275 objects as of 9-Sep-2026
HD Live streaming from Space Station
objects crossing your sky now

STARLINK-34112

Track STARLINK-34112 now!
10-day predictions
STARLINK-34112 is classified as:


NORAD ID: 63969
Int'l Code: 2025-099T
Launch date: May 13, 2025
Source: United States (US)
Launch site: AIR FORCE EASTERN TEST RANGE (AFETR)
Your satellite tracking list
Your tracking list is empty




NASA's NSSDC Master Catalog

Two Line Element Set (TLE):
1 63969U 25099T   26251.00676949  .00013588  00000-0  50217-3 0  9998
2 63969  42.9997 226.2131 0001202 241.7810 118.2921 15.27593272 75223
Source of the keplerian elements: AFSPC